Retour au catalogue

THORAD AGENA D DEB

ActifPO
NORAD 4929·DEBRIS·🇺🇸 United States

Lancé Apr 8, 1970 depuis Vandenberg Space Force Base

Loading…

Prochains Passages

TLE

Source: Space-Track
1 04929U 70025FV  26224.42445432  .00000093  00000-0  46581-3 0  9991
2 04929  99.6704 207.2291 0450281 314.9836 202.4301 12.65757920591649

Suivez THORAD AGENA D DEB en temps réel avec AllMySat

Download on the App Store